Regional Weather Roundup
Issued by NWS

Home | Current Version | Previous Version | Graphics & Text | Print | Product List | Glossary On
Versions: 1 2 3 4 5 6 7 8 9 10 11 12 13 14 15 16 17 18 19 20 21 22 23 24 25 26 27 28 29 30 31 32 33 34 35 36 37 38 39 40 41 42 43 44 45 46 47 48 49
000
ASUS45 KSLC 232210
RWRUT

UTAH REGIONAL WEATHER ROUNDUP
NATIONAL WEATHER SERVICE SALT LAKE CITY UT
400 PM MDT MON MAY 23 2016

UTZ001>011-023>025-232300-

NORTHERN UTAH

CITY           SKY/WX    TMP DP  RH WIND       PRES   REMARKS
BRIGHAM CITY     N/A     65  29  25 CALM      29.88S
DUGWAY         PTSUNNY   70  28  21 E14G21    29.84F
HILL AFB       MOSUNNY   65  31  28 VRB6      29.87F
LOGAN          SUNNY     64  34  32 S6        29.87F
OGDEN          MOSUNNY   66  32  28 MISG      29.86F
PROVO AIRPORT  MOSUNNY   66  36  32 NW17G25   29.86F
SALT LAKE CITY PTSUNNY   64  34  32 S14       29.87S
VERNAL         MOSUNNY   66  27  23 VRB3      29.87F
WENDOVER       CLOUDY    61  34  36 NW8       29.87F
HEBER CITY     PTSUNNY   66  23  19 SW15G22   29.86F
WEST JORDAN    CLOUDY    61  34  36 W6G18     29.89F

$$

UTZ012>022-026-027-232300-

SOUTHERN/CENTRAL UTAH

CITY           SKY/WX    TMP DP  RH WIND       PRES   REMARKS
BLANDING       SUNNY     70  14  11 SW10G17   29.98S
BRYCE CANYON   MOSUNNY   60  18  19 SE10G24   29.95F
CEDAR CITY     SUNNY     70  14  11 SW15G24   29.86F
DELTA          SUNNY     68  19  15 W6G20     29.84F
HANKSVILLE     SUNNY     75  19  12 CALM      29.81F
MILFORD        SUNNY     71  17  12 SW15G24   29.83F
MOAB/CYNLANDS  SUNNY     76  18  11 W16G26    29.79F
PRICE          PTSUNNY   65  19  17 VRB5      29.88F
ST GEORGE      MOCLDY    79  25  13 W7G17     29.78F

$$

REGIONAL REPORTS     COLORADO/ARIZONA

CITY           SKY/WX    TMP DP  RH WIND       PRES   REMARKS
CRAIG, CO      SUNNY     64  29  26 NW9       29.91F
GRAND JUNCTION SUNNY     72  22  15 VRB7      29.82F
RIFLE          PTSUNNY   68  23  18 S12       29.85S
MONTROSE       MOSUNNY   73  17  12 W20G25    29.87F
CORTEZ         SUNNY     71  17  12 S7        29.92F
PAGE, AZ       SUNNY     78  16   9 NE10G18   29.81F
GRAND CANYON   SUNNY     67  13  12 S14       29.96F
KINGMAN        SUNNY     78  21  12 SW20G35   29.83F
FLAGSTAFF      SUNNY     62  13  14 SW16G28   29.99F

$$

REGIONAL REPORTS    NEVADA/IDAHO/WYOMING

CITY           SKY/WX    TMP DP  RH WIND       PRES   REMARKS
LAS VEGAS, NV  MOSUNNY   83  24  11 S16G22    29.68F
ELY            PTSUNNY   60  21  22 S18       29.86F
ELKO           PTSUNNY   58  34  40 SE13G26   29.85R
POCATELLO, ID  MOSUNNY   63  29  27 W17       29.88F
BURLEY         PTSUNNY   64  32  30 NW9       29.84F
EVANSTON, WY   CLOUDY    52  29  41 SW6       29.94F
ROCK SPRINGS   LGT RAIN  49  36  61 W26G33    29.96R
KEMMERER         N/A     54  27  35 W18       29.95F

$$



USA.gov is the U.S. government's official web portal to all federal, state and local government web resources and services.